| time (UTC) | temp F | wind direction | speed knots | gust knots | rain 1hr in | rain 24hr in | rain mn in | humidity % | barometer mb |
| 20260902070517 | 68 | 47 | 2.6 | 4.3 | 0.00 | 0.00 | 0.00 | 51 | 1022.2 |
| 20260902065517 | 67 | 44 | 3.5 | 6.1 | 0.00 | 0.00 | 0.00 | 51 | 1022.0 |
| 20260902064517 | 67 | 43 | 4.3 | 7.0 | 0.00 | 0.00 | 0.00 | 50 | 1022.1 |
| 20260902063517 | 67 | 50 | 2.6 | 5.2 | 0.00 | 0.00 | 0.00 | 49 | 1021.9 |
| 20260902062517 | 66 | 47 | 3.5 | 7.8 | 0.00 | 0.00 | 0.00 | 49 | 1021.7 |
| 20260902061517 | 66 | 46 | 4.3 | 7.0 | 0.00 | 0.00 | 0.00 | 47 | 1021.6 |
| 20260902060517 | 66 | 47 | 4.3 | 6.1 | 0.00 | 0.00 | 0.00 | 46 | 1021.6 |
| 20260902055517 | 66 | 46 | 2.6 | 5.2 | 0.00 | 0.00 | 0.00 | 44 | 1021.6 |
| 20260902054557 | 66 | 50 | 1.7 | 5.2 | 0.00 | 0.00 | 0.00 | 44 | 1021.4 |
| 20260902053517 | 66 | 43 | 3.5 | 5.2 | 0.00 | 0.00 | 0.00 | 43 | 1021.3 |
| 20260902052517 | 67 | 52 | 2.6 | 4.3 | 0.00 | 0.00 | 0.00 | 43 | 1021.1 |
| 20260902051517 | 67 | 62 | 2.6 | 6.1 | 0.00 | 0.00 | 0.00 | 43 | 1021.2 |
| 20260902050517 | 67 | 55 | 2.6 | 5.2 | 0.00 | 0.00 | 0.00 | 43 | 1021.2 |
| 20260902045657 | 67 | 41 | 2.6 | 4.3 | 0.00 | 0.00 | 0.00 | 42 | 1021.0 |
| 20260902044517 | 67 | 59 | 1.7 | 4.3 | 0.00 | 0.00 | 0.00 | 42 | 1020.9 |
| 20260902043517 | 68 | 67 | 1.7 | 4.3 | 0.00 | 0.00 | 0.00 | 41 | 1020.8 |
| 20260902042517 | 68 | 46 | 2.6 | 5.2 | 0.00 | 0.00 | 0.00 | 40 | 1020.9 |
| 20260902041517 | 68 | 42 | 1.7 | 3.5 | 0.00 | 0.00 | 0.00 | 39 | 1020.9 |
| 20260902040517 | 69 | 59 | 1.7 | 4.3 | 0.00 | 0.00 | 0.00 | 38 | 1020.9 |
| 20260902035517 | 69 | 63 | 1.7 | 4.3 | 0.00 | 0.00 | 0.00 | 39 | 1021.0 |
| 20260902034517 | 69 | 76 | 1.7 | 3.5 | 0.00 | 0.00 | 0.00 | 39 | 1021.0 |
| 20260902033517 | 69 | 42 | 1.7 | 4.3 | 0.00 | 0.00 | 0.00 | 39 | 1021.0 |
| 20260902032517 | 69 | 82 | 1.7 | 3.5 | 0.00 | 0.00 | 0.00 | 39 | 1021.1 |
| 20260902031517 | 69 | 82 | 1.7 | 2.6 | 0.00 | 0.00 | 0.00 | 38 | 1021.0 |
| 20260902030517 | 70 | 81 | 1.7 | 4.3 | 0.00 | 0.00 | 0.00 | 38 | 1020.9 |
| 20260902025557 | 70 | 46 | 1.7 | 3.5 | 0.00 | 0.00 | 0.00 | 37 | 1020.9 |
| 20260902024517 | 70 | 56 | 0.9 | 2.6 | 0.00 | 0.00 | 0.00 | 37 | 1020.8 |
| 20260902023517 | 71 | 56 | 1.7 | 2.6 | 0.00 | 0.00 | 0.00 | 36 | 1020.8 |
| 20260902022517 | 71 | 56 | 0.9 | 3.5 | 0.00 | 0.00 | 0.00 | 36 | 1020.6 |
| 20260902021517 | 70 | 47 | 0.9 | 2.6 | 0.00 | 0.00 | 0.00 | 38 | 1020.5 |
| 20260902020517 | 71 | 47 | 0.9 | 4.3 | 0.00 | 0.00 | 0.00 | 38 | 1020.5 |
| 20260902015517 | 71 | 66 | 1.7 | 4.3 | 0.00 | 0.00 | 0.00 | 37 | 1020.4 |
| 20260902014517 | 71 | 13 | 0.9 | 1.7 | 0.00 | 0.00 | 0.00 | 39 | 1020.4 |
| 20260902013515 | 71 | 0.0 | 0.0 | 0.00 | 0.00 | 0.00 | 38 | 1020.3 | |
| 20260902012517 | 71 | 0.0 | 0.0 | 0.00 | 0.00 | 0.00 | 38 | 1020.3 | |
| 20260902011515 | 71 | 0.0 | 0.0 | 0.00 | 0.00 | 0.00 | 38 | 1020.2 | |
| 20260902010517 | 72 | 0.0 | 0.0 | 0.00 | 0.00 | 0.00 | 37 | 1020.3 | |
| 20260902005517 | 72 | 0.0 | 0.0 | 0.00 | 0.00 | 0.00 | 37 | 1020.3 | |
| 20260902004517 | 72 | 0.0 | 0.0 | 0.00 | 0.00 | 0.00 | 36 | 1020.2 | |
| 20260902003517 | 73 | 0.0 | 0.0 | 0.00 | 0.00 | 0.00 | 35 | 1020.2 | |
| 20260902002517 | 73 | 0.0 | 0.0 | 0.00 | 0.00 | 0.00 | 34 | 1020.3 | |
| 20260902001637 | 74 | 0.0 | 0.0 | 0.00 | 0.00 | 0.00 | 34 | 1020.3 | |
| 20260902000517 | 73 | 0.0 | 0.0 | 0.00 | 0.00 | 0.00 | 35 | 1020.1 | |
| 20260901235516 | 73 | 0.0 | 0.0 | 0.00 | 0.00 | 0.00 | 37 | 1020.1 | |
| 20260901234557 | 73 | 0.0 | 0.0 | 0.00 | 0.00 | 0.00 | 37 | 1020.2 | |
| 20260901233557 | 73 | 0.0 | 0.0 | 0.00 | 0.00 | 0.00 | 37 | 1020.1 | |
| 20260901232557 | 73 | 0.0 | 0.0 | 0.00 | 0.00 | 0.00 | 37 | 1020.1 | |
| 20260901231517 | 74 | 0.0 | 0.0 | 0.00 | 0.00 | 0.00 | 36 | 1020.0 | |
| 20260901230557 | 74 | 0.0 | 0.0 | 0.00 | 0.00 | 0.00 | 36 | 1019.9 | |
| 20260901225517 | 74 | 0.0 | 0.0 | 0.00 | 0.00 | 0.00 | 35 | 1019.8 | |
| 20260901224517 | 74 | 0.0 | 0.0 | 0.00 | 0.00 | 0.00 | 37 | 1019.6 | |
| 20260901223516 | 75 | 0.0 | 0.0 | 0.00 | 0.00 | 0.00 | 37 | 1019.4 | |
| 20260901222517 | 75 | 0.0 | 0.0 | 0.00 | 0.00 | 0.00 | 35 | 1019.3 | |
| 20260901221516 | 76 | 0.0 | 0.0 | 0.00 | 0.00 | 0.00 | 36 | 1019.3 | |
| 20260901220516 | 76 | 0.0 | 0.0 | 0.00 | 0.00 | 0.00 | 36 | 1019.2 | |
| 20260901215556 | 76 | 0.0 | 0.0 | 0.00 | 0.00 | 0.00 | 34 | 1019.2 | |
| 20260901214517 | 77 | 0.0 | 0.0 | 0.00 | 0.00 | 0.00 | 33 | 1019.1 | |
| 20260901213516 | 78 | 0.0 | 0.0 | 0.00 | 0.00 | 0.00 | 32 | 1019.1 | |
| 20260901212516 | 78 | 0.0 | 0.0 | 0.00 | 0.00 | 0.00 | 33 | 1019.1 | |
| 20260901211556 | 79 | 0.0 | 0.0 | 0.00 | 0.00 | 0.00 | 31 | 1019.0 | |
| 20260901210517 | 79 | 0.0 | 0.0 | 0.00 | 0.00 | 0.00 | 30 | 1018.9 | |
| 20260901205557 | 80 | 0.0 | 0.0 | 0.00 | 0.00 | 0.00 | 29 | 1018.8 | |
| 20260901204517 | 81 | 0.0 | 0.0 | 0.00 | 0.00 | 0.00 | 29 | 1018.7 | |
| 20260901203517 | 83 | 0.0 | 0.0 | 0.00 | 0.00 | 0.00 | 25 | 1018.5 | |
| 20260901202517 | 84 | 317 | 0.0 | 0.9 | 0.00 | 0.00 | 0.00 | 25 | 1018.5 |
| 20260901201517 | 84 | 317 | 0.0 | 1.7 | 0.00 | 0.00 | 0.00 | 24 | 1018.4 |
| 20260901200517 | 85 | 316 | 0.9 | 1.7 | 0.00 | 0.00 | 0.00 | 23 | 1018.2 |
| 20260901195517 | 85 | 317 | 0.0 | 1.7 | 0.00 | 0.00 | 0.00 | 23 | 1017.9 |
| 20260901194557 | 86 | 316 | 0.9 | 2.6 | 0.00 | 0.00 | 0.00 | 23 | 1017.8 |
| 20260901193517 | 86 | 332 | 0.9 | 2.6 | 0.00 | 0.00 | 0.00 | 23 | 1017.7 |
| 20260901192557 | 86 | 307 | 0.9 | 2.6 | 0.00 | 0.00 | 0.00 | 23 | 1017.4 |
| 20260901191516 | 86 | 287 | 0.9 | 2.6 | 0.00 | 0.00 | 0.00 | 23 | 1017.2 |
| 20260901190517 | 87 | 287 | 0.9 | 2.6 | 0.00 | 0.00 | 0.00 | 24 | 1017.2 |
| 20260901185557 | 87 | 287 | 0.9 | 1.7 | 0.00 | 0.00 | 0.00 | 23 | 1017.1 |
| 20260901184517 | 88 | 287 | 0.9 | 1.7 | 0.00 | 0.00 | 0.00 | 23 | 1017.1 |
| 20260901183517 | 89 | 287 | 0.9 | 1.7 | 0.00 | 0.00 | 0.00 | 23 | 1017.0 |
| 20260901182517 | 89 | 286 | 0.9 | 2.6 | 0.00 | 0.00 | 0.00 | 22 | 1016.9 |
| 20260901181637 | 90 | 295 | 1.7 | 4.3 | 0.00 | 0.00 | 0.00 | 22 | 1017.0 |
| 20260901180517 | 91 | 278 | 1.7 | 3.5 | 0.00 | 0.00 | 0.00 | 22 | 1017.0 |
| 20260901175557 | 91 | 271 | 1.7 | 7.0 | 0.00 | 0.00 | 0.00 | 21 | 1017.0 |
| 20260901174517 | 92 | 290 | 1.7 | 5.2 | 0.00 | 0.00 | 0.00 | 21 | 1017.1 |
| 20260901173517 | 92 | 294 | 2.6 | 6.1 | 0.00 | 0.00 | 0.00 | 21 | 1017.1 |
| 20260901172517 | 92 | 276 | 3.5 | 6.1 | 0.00 | 0.00 | 0.00 | 21 | 1017.1 |
| 20260901171517 | 92 | 283 | 1.7 | 5.2 | 0.00 | 0.00 | 0.00 | 21 | 1017.0 |
| 20260901170517 | 92 | 285 | 3.5 | 5.2 | 0.00 | 0.00 | 0.00 | 21 | 1017.0 |
| 20260901165517 | 92 | 265 | 3.5 | 8.7 | 0.00 | 0.00 | 0.00 | 22 | 1017.1 |
| 20260901164516 | 93 | 306 | 2.6 | 5.2 | 0.00 | 0.00 | 0.00 | 22 | 1017.2 |
| 20260901163517 | 93 | 299 | 2.6 | 7.8 | 0.00 | 0.00 | 0.00 | 22 | 1017.2 |
| 20260901162557 | 94 | 266 | 5.2 | 9.6 | 0.00 | 0.00 | 0.00 | 21 | 1017.3 |
| 20260901161517 | 93 | 223 | 2.6 | 9.6 | 0.00 | 0.00 | 0.00 | 21 | 1017.2 |
| 20260901160558 | 94 | 276 | 5.2 | 8.7 | 0.00 | 0.00 | 0.00 | 21 | 1017.4 |
| 20260901155557 | 94 | 278 | 1.7 | 6.1 | 0.00 | 0.00 | 0.00 | 21 | 1017.4 |
| 20260901154517 | 93 | 316 | 2.6 | 6.1 | 0.00 | 0.00 | 0.00 | 22 | 1017.4 |
| 20260901153617 | 93 | 272 | 4.3 | 8.7 | 0.00 | 0.00 | 0.00 | 21 | 1017.4 |
| 20260901152517 | 94 | 260 | 3.5 | 9.6 | 0.00 | 0.00 | 0.00 | 21 | 1017.5 |
| 20260901151557 | 93 | 273 | 5.2 | 8.7 | 0.00 | 0.00 | 0.00 | 21 | 1017.6 |
| 20260901150517 | 94 | 256 | 1.7 | 7.8 | 0.00 | 0.00 | 0.00 | 21 | 1017.8 |
| 20260901145517 | 93 | 249 | 3.5 | 8.7 | 0.00 | 0.00 | 0.00 | 22 | 1017.6 |
| 20260901144557 | 93 | 279 | 5.2 | 13.0 | 0.00 | 0.00 | 0.00 | 21 | 1017.7 |
| 20260901143657 | 93 | 258 | 3.5 | 7.8 | 0.00 | 0.00 | 0.00 | 22 | 1017.7 |
| 20260901142557 | 92 | 261 | 3.5 | 7.8 | 0.00 | 0.00 | 0.00 | 22 | 1017.9 |
| 20260901141517 | 92 | 268 | 4.3 | 10.4 | 0.00 | 0.00 | 0.00 | 24 | 1018.0 |
| 20260901140517 | 92 | 274 | 4.3 | 9.6 | 0.00 | 0.00 | 0.00 | 24 | 1018.1 |
| 20260901135557 | 92 | 268 | 4.3 | 8.7 | 0.00 | 0.00 | 0.00 | 25 | 1018.3 |
| 20260901134517 | 91 | 145 | 2.6 | 6.1 | 0.00 | 0.00 | 0.00 | 27 | 1018.2 |
| 20260901133517 | 91 | 222 | 3.5 | 8.7 | 0.00 | 0.00 | 0.00 | 26 | 1018.3 |
| 20260901132557 | 91 | 268 | 2.6 | 7.8 | 0.00 | 0.00 | 0.00 | 26 | 1018.4 |
| 20260901131517 | 91 | 183 | 3.5 | 11.3 | 0.00 | 0.00 | 0.00 | 27 | 1018.5 |
| 20260901130517 | 91 | 268 | 3.5 | 9.6 | 0.00 | 0.00 | 0.00 | 26 | 1018.7 |
| 20260901125558 | 90 | 239 | 2.6 | 10.4 | 0.00 | 0.00 | 0.00 | 28 | 1018.7 |
| 20260901124517 | 90 | 238 | 4.3 | 9.6 | 0.00 | 0.00 | 0.00 | 29 | 1018.8 |
| 20260901123515 | 89 | 155 | 3.5 | 9.6 | 0.00 | 0.00 | 0.00 | 29 | 1018.9 |
| 20260901122515 | 89 | 168 | 3.5 | 7.8 | 0.00 | 0.00 | 0.00 | 31 | 1019.0 |
| 20260901121517 | 88 | 254 | 2.6 | 6.1 | 0.00 | 0.00 | 0.00 | 35 | 1019.0 |
| 20260901120515 | 88 | 250 | 2.6 | 5.2 | 0.00 | 0.00 | 0.00 | 36 | 1019.2 |
| 20260901115517 | 86 | 263 | 3.5 | 7.0 | 0.00 | 0.00 | 0.00 | 36 | 1019.2 |
| 20260901114517 | 86 | 281 | 1.7 | 5.2 | 0.00 | 0.00 | 0.00 | 36 | 1019.3 |
| 20260901113557 | 86 | 84 | 2.6 | 6.1 | 0.00 | 0.00 | 0.00 | 38 | 1019.4 |
| 20260901112517 | 85 | 348 | 1.7 | 6.1 | 0.00 | 0.00 | 0.00 | 42 | 1019.5 |
| 20260901111517 | 85 | 123 | 2.6 | 8.7 | 0.00 | 0.00 | 0.00 | 43 | 1019.6 |
| 20260901110517 | 85 | 82 | 2.6 | 7.0 | 0.00 | 0.00 | 0.00 | 43 | 1019.7 |
| 20260901105517 | 84 | 178 | 1.7 | 6.1 | 0.00 | 0.00 | 0.00 | 44 | 1019.7 |
| 20260901104517 | 83 | 70 | 1.7 | 6.1 | 0.00 | 0.00 | 0.00 | 46 | 1019.8 |
| 20260901103517 | 82 | 57 | 0.9 | 7.0 | 0.00 | 0.00 | 0.00 | 49 | 1019.8 |
| 20260901102557 | 81 | 97 | 1.7 | 6.1 | 0.00 | 0.00 | 0.00 | 51 | 1020.0 |
| 20260901101517 | 80 | 116 | 3.5 | 7.0 | 0.00 | 0.00 | 0.00 | 51 | 1020.0 |
| 20260901100557 | 80 | 120 | 2.6 | 7.0 | 0.00 | 0.00 | 0.00 | 53 | 1020.1 |
| 20260901095515 | 79 | 122 | 2.6 | 7.8 | 0.00 | 0.00 | 0.00 | 54 | 1020.1 |
| 20260901094515 | 78 | 51 | 2.6 | 7.0 | 0.00 | 0.00 | 0.00 | 58 | 1020.2 |
| 20260901093515 | 77 | 49 | 3.5 | 7.8 | 0.00 | 0.00 | 0.00 | 58 | 1020.2 |
| 20260901092515 | 77 | 17 | 2.6 | 6.1 | 0.00 | 0.00 | 0.00 | 60 | 1020.2 |
| 20260901091515 | 76 | 75 | 1.7 | 6.1 | 0.00 | 0.00 | 0.00 | 62 | 1020.0 |
| 20260901090515 | 76 | 25 | 2.6 | 6.1 | 0.00 | 0.00 | 0.00 | 63 | 1020.2 |
| 20260901085615 | 75 | 54 | 2.6 | 7.0 | 0.00 | 0.00 | 0.00 | 64 | 1020.0 |
| 20260901084515 | 75 | 53 | 2.6 | 5.2 | 0.00 | 0.00 | 0.00 | 65 | 1019.9 |
| 20260901083516 | 74 | 57 | 1.7 | 5.2 | 0.00 | 0.00 | 0.00 | 66 | 1019.9 |
| 20260901082515 | 73 | 116 | 1.7 | 4.3 | 0.00 | 0.00 | 0.00 | 66 | 1019.9 |
| 20260901081515 | 72 | 45 | 2.6 | 5.2 | 0.00 | 0.00 | 0.00 | 67 | 1019.9 |
| 20260901080516 | 72 | 46 | 2.6 | 5.2 | 0.00 | 0.00 | 0.00 | 68 | 1020.0 |
| 20260901075555 | 72 | 57 | 2.6 | 4.3 | 0.00 | 0.00 | 0.00 | 68 | 1020.0 |
| 20260901074515 | 72 | 59 | 3.5 | 5.2 | 0.00 | 0.00 | 0.00 | 68 | 1020.1 |
| 20260901073515 | 71 | 50 | 1.7 | 4.3 | 0.00 | 0.00 | 0.00 | 66 | 1020.1 |
| 20260901072515 | 71 | 49 | 1.7 | 5.2 | 0.00 | 0.00 | 0.00 | 65 | 1020.2 |
| 20260901071515 | 70 | 62 | 1.7 | 5.2 | 0.00 | 0.00 | 0.00 | 64 | 1020.2 |